Regional Weather Roundup
Issued by NWS

Home | Current Version | Previous Version | Graphics & Text | Print | Product List | Glossary On
Versions: 1 2 3 4 5 6 7 8 9 10 11 12 13 14 15 16 17 18 19 20 21 22 23 24 25 26 27 28 29 30 31 32 33 34 35 36 37 38 39 40 41 42 43 44 45 46 47 48 49 50
000
ASUS45 KTFX 060219
RWRMT
MONTANA HOURLY WEATHER ROUNDUP
NATIONAL WEATHER SERVICE GREAT FALLS MT
719 PM MST THU MAR 5 2015

NOTE: "FAIR" INDICATES FEW OR NO CLOUDS BELOW 12000 FEET WITH NO
SIGNIFICANT WEATHER AND/OR OBSTRUCTIONS TO VISIBILITY.

* THESE STATIONS ARE NOT UNDER NWS QUALITY CONTROL. THEY DO NOT
   REPORT WEATHER SUCH AS PRECIPITATION OR FOG.

MTZ001>007-043-060300-
WEST OF THE DIVIDE
CITY           SKY/WX    TMP DP  RH WIND       PRES   REMARKS
KALISPELL      PTCLDY    34  18  52 CALM      30.25R
MISSOULA       CLEAR     39  16  39 CALM      30.27R
BUTTE          MOCLDY    37  10  33 W5        30.23R WCI  33
MULLAN PASS    PTCLDY    30  14  51 W6        30.24S WCI  24
* ANACONDA     PTCLDY    37  14  39 NE3        N/A
* ESSEX        N/A       31  18  59 N/A        N/A
* EUREKA APT   MOCLDY    30  16  56 CALM      30.26R
* HAMILTON APT PTCLDY    50  10  20 SW6       30.26R
* LIBBY APT    PTCLDY    36  19  50 SE6       30.27R WCI  31
* LINCOLN      N/A       43  10  26 W7G19      N/A
* LOOKOUT PASS N/A       34  19  54 NW2        N/A
* POLSON       N/A       36  12  37 SE2        N/A
* RONAN APT    CLEAR     37  27  67 N/A        N/A
* SEELEY LAKE  N/A       42  10  27 N3G10      N/A
* THOMP F APT  PTCLDY    30  11  45 SE2        N/A
* YAAK HILL    N/A       44  15  31 N2         N/A
$$

MTZ008-052>055-060300-
SOUTHWEST MONTANA
CITY           SKY/WX    TMP DP  RH WIND       PRES   REMARKS
BOZEMAN        CLOUDY    39  18  43 CALM      30.22R
DILLON         CLOUDY    39   9  29 SW8       30.23R WCI  33
* W YELLOWSTON PTCLDY    27  14  58 SW3G13     N/A
* THREE FORKS  MOCLDY    45  12  26 N/A        N/A
* BOULDER HILL N/A       36   6  28 N/A        N/A
* MONIDA PASS  N/A       26  12  55 SE14       N/A   WCI  14
* RAYNOLDS PAS N/A       25  11  55 S10        N/A   WCI  15
* WHITEHALL    N/A       43   6  21 W4G9       N/A
* WISE RIVER   N/A       41   6  23 W12G21     N/A
$$

MTZ009>010-012-014-046-048-049-054-060300-
EAST SLOPES AND CENTRAL MONTANA
CITY           SKY/WX    TMP DP  RH WIND       PRES   REMARKS
CUT BANK       MOCLDY    37  12  36 W28G33    30.07R WCI  25
GREAT FALLS    MOCLDY    39  12  33 SW14      30.10S WCI  31
HELENA         MOCLDY    43  12  28 S5        30.19S
MALMSTROM AFB  MOCLDY    43  12  28 SW16      30.11S
* CONRAD       CLOUDY    45  18  34 SW6        N/A
* DEARBORN     N/A       44  15  31 SW1G6      N/A
* EAST GLACIER N/A       36  10  34 W37G45     N/A   WCI  22
* MONARCH      N/A       36   8  31 SW15G20    N/A   WCI  27
* PENDROY      N/A       39  16  39 W20G26     N/A   WCI  29
* ROGERS PASS  N/A       38   8  29 SE12G28    N/A   WCI  30
* SWEET GRASS  N/A       40  20  45 W17        N/A   WCI  31
* WHITE SULPH  N/A       37  10  33 W4G15      N/A
$$

MTZ011-013-016-021-035-040-045-047-050-051-060300-
NORTH CENTRAL MONTANA
CITY           SKY/WX    TMP DP  RH WIND       PRES   REMARKS
HAVRE          MOCLDY    36  18  48 SW8       30.07R WCI  30
LEWISTOWN      PTCLDY    37  25  62 W7        30.10S WCI  32
* CHINOOK      MOCLDY    36  19  50 S5        30.08R WCI  32
* FORT BENTON  PTCLDY    43  10  26 SW8       30.10S
* MALTA APT    MOCLDY    36  18  48 SW5        N/A   WCI  32
* CHESTER      N/A       41  19  41 NW1        N/A
* DENTON       N/A       37  19  48 W10        N/A   WCI  30
* GEYSER       N/A       40  14  35 W19        N/A   WCI  31
* JUDITH GAP   N/A       38  18  44 NW11       N/A   WCI  31
* LOMA         N/A       46  13  26 SW11       N/A
$$

MTZ017>020-022>027-061-062-060300-
NORTHEAST MONTANA
CITY           SKY/WX    TMP DP  RH WIND       PRES   REMARKS
GLASGOW        CLOUDY    37  18  46 W8        30.03F WCI  31
GLENDIVE       PTCLDY    28  16  61 W7        30.07F WCI  21
JORDAN         PTCLDY    34  19  54 W5        30.07S WCI  29
SIDNEY         MOCLDY    36  18  48 SW9       30.06F WCI  29
WOLF POINT     CLOUDY    39  21  48 W7        30.04R WCI  34
* BEAVER HILL  N/A       33  13  44 SW5        N/A   WCI  28
* CIRCLE       N/A       39  21  48 N/A        N/A
* LINDSAY DVD  N/A       33  16  50 W9         N/A   WCI  25
* NAVAJO       N/A       35  22  59 NW9        N/A   WCI  28
* PLENTYWOOD A PTCLDY    34  21  59 W10       30.00S WCI  26
* POPLAR APT   PTCLDY    37  19  48 SW5       30.04S WCI  33
* SACO         N/A       40  19  43 W8         N/A   WCI  35
* SCOBEY APT   PTCLDY    34  16  48 N/A        N/A
$$

MTZ028>042-056>058-060300-
SOUTHCENTRAL AND SOUTHEAST MONTANA
CITY           SKY/WX    TMP DP  RH WIND       PRES   REMARKS
BAKER          CLEAR     34  16  48 CALM      30.08S
BILLINGS       CLOUDY    43  16  34 W10       30.13S
LIVINGSTON     CLOUDY    45  14  28 W14       30.17R
MILES CITY     CLOUDY    41  12  30 N/A       30.09S
* BIG TIMBER A CLOUDY    45  10  24 W21G28    30.14F
* FORSYTH APT  CLOUDY    45  12  26 SW3       30.11R
* LAUREL APT   CLOUDY    39  16  39 S6         N/A   WCI  35
* ROUNDUP APT  CLOUDY    45   9  23 N/A        N/A
* ALZADA       N/A       31  19  61 SW3        N/A
* HYSHAM       N/A       44   7  22 NW1        N/A
* LAME DEER    N/A       39  16  39 W7         N/A   WCI  34
* REED POINT   N/A       47  13  25 W8         N/A
* ROSCOE HILL  N/A       41   6  23 W4         N/A
$$

REGIONAL REPORTS...DAKOTAS
CITY           SKY/WX    TMP DP  RH WIND       PRES   REMARKS
WILLISTON      CLOUDY    36  21  54 SW7       30.02R WCI  30
DICKINSON      PTCLDY    25  10  53 W7        30.04R WCI  17
BEACH          CLOUDY    28  16  61 SW7       30.06F WCI  21
CROSBY         CLEAR     32  21  64 W13       29.99S WCI  22
TIOGA          CLEAR     23  16  74 SW9       30.01S WCI  13
WATFORD CITY   CLOUDY    28  19  69 SW8       30.00F WCI  20
BISMARCK       CLEAR     28  12  51 SW5       30.06F WCI  22
GRAND FORKS    PTCLDY    18  10  71 S15       30.07F WCI   4
FARGO          PTCLDY    18   7  62 S15       30.15F WCI   4
BUFFALO SD     CLEAR     34  12  40 W7        30.03S WCI  28
RAPID CITY     PTCLDY    30  18  61 NW10      30.13R WCI  21
$$

REGIONAL REPORTS...WYOMING/IDAHO/WASHINGTON
CITY           SKY/WX    TMP DP  RH WIND       PRES   REMARKS
GILLETTE       PTCLDY    34  19  54 W10       30.15R WCI  26
SHERIDAN       MOCLDY    30  21  69 S5        30.14S WCI  25
CODY           CLOUDY    43  14  31 NW8G20    30.17S
YELLOWSTONE LA PTCLDY    23   9  55 CALM      30.32R
SALMON         PTCLDY    37  14  39 SE3       30.28R
MULLAN PASS    PTCLDY    30  14  51 W6        30.24S WCI  24
SAND POINT     MOCLDY    41  19  41 S6        30.29R
SPOKANE        MOCLDY    46  21  37 SW6       30.29R
$$

REGIONAL REPORTS...ALBERTA
CITY           SKY/WX    TMP DP  RH WIND       PRES   REMARKS
CALGARY        PTCLDY    41  19  41 SE3       29.99S
LETHBRIDGE     MOCLDY    43  18  37 W22G30    30.03R
MEDICINE HAT   CLOUDY    36  27  70 SW5       30.05R WCI  32
EDMONTON       MOCLDY    30  21  69 S9        29.95F WCI  22
WATERTON GATE  N/A       37  14  39 SW23G36    N/A   WCI  26
CARDSTON       N/A       41  18  39 W14G23     N/A
MILK RIVER     N/A       36  28  73 W12        N/A   WCI  28
$$

REGIONAL REPORTS...SASKATCHEWAN
CITY           SKY/WX    TMP DP  RH WIND       PRES   REMARKS
SWIFT CURRENT  CLOUDY    28  19  69 NW7       30.00R WCI  21
REGINA         FAIR      19  16  88 W13       29.98R WCI   6
VAL MARIE      N/A       32  23  69 W6         N/A   WCI  26
ASSINIBOIA     N/A       28  21  75 NW12       N/A   WCI  18
CORONACH       N/A       30  21  69 W10        N/A   WCI  21

$$



USA.gov is the U.S. government's official web portal to all federal, state and local government web resources and services.